OpenBCM V1.07b12 (Linux)

Packet Radio Mailbox

DB0FHN

[JN59NK Nuernberg]

 Login: GUEST





  
S57NML > KEPLER   21.04.03 10:09l 105 Lines 5651 Bytes #999 (0) @ WW
BID : L43S50BOX006
Read: DB0FHN GUEST
Subj: 2-line Amateur #03110
Path: DB0FHN<DB0ZWI<DB0HOT<OK0PKL<OK0PPL<OK0NAG<9A0BBS<S50BOX
Sent: 030421/0753z @:S50BOX.SVN.EU [Ljubljana ] bcm1.42
From: S57NML @ S50BOX.SVN.EU  (Andrej)
To:   KEPLER @ WW
X-Info: Received from 194.249.12.220 by HTTP-frontend

AO-7                    
1 07530U 74089B   03107.71104858 -.00000029  00000-0  10000-3 0  1828
2 07530 101.7502 154.9262 0012236 326.7190  33.3112 12.53565183300470
AO-10                   
1 14129U 83058B   03109.15052102 -.00000073  00000-0  10000-3 0  9287
2 14129  26.0809 154.5485 6003632 345.1181   3.1329  2.05868114121297
UO-11                   
1 14781U 84021B   03110.19897727  .00000809  00000-0  11900-3 0  1264
2 14781  98.1276  84.6349 0010094  22.7408 337.4249 14.78177123 25197
UO-14                   
1 20437U 90005B   03109.55090765  .00000090  00000-0  49601-4 0  2121
2 20437  98.2618 150.2680 0011596  27.7940 332.3868 14.31258628691071
AO-16                   
1 20439U 90005D   03108.64722867  .00000082  00000-0  46360-4 0  8808
2 20439  98.3056 161.4319 0011511  37.8636 322.3353 14.31495911690989
DO-17                   
1 20440U 90005E   03107.71612864  .00000106  00000-0  55307-4 0  7494
2 20440  98.3263 164.5700 0012020  37.0932 323.1080 14.31776268690923
WO-18                   
1 20441U 90005F   03110.23219883  .00000089  00000-0  48878-4 0   623
2 20441  98.3209 166.1540 0012433  32.6252 327.5697 14.31577707691265
LO-19                   
1 20442U 90005G   03108.73609339  .00000086  00000-0  47977-4 0  9956
2 20442  98.3374 167.8518 0012826  34.7772 325.4240 14.31741261691100
FO-20                   
1 20480U 90013C   03108.87254085 -.00000044  00000-0 -21430-4 0  4773
2 20480  99.0550  60.5008 0539557 229.5017 125.7873 12.83331309618127
RS-12/13                
1 21089U 91007A   03110.54686321  .00000071  00000-0  58642-4 0  5068
2 21089  82.9214 136.1463 0030713 114.5682 245.8679 13.74410852612165
UO-22                   
1 21575U 91050B   03110.20279851  .00000179  00000-0  70922-4 0  7780
2 21575  98.1475  99.3022 0006945 319.0145  41.0520 14.39199073617000
KO-23                   
1 22077U 92052B   03107.95304308 -.00000037  00000-0  10000-3 0  1929
2 22077  66.0845   3.4622 0015592 261.4361  98.4890 12.86410577501815
AO-27                   
1 22825U 93061C   03110.53125406  .00000092  00000-0  52470-4 0  5369
2 22825  98.2660 137.1050 0009605  77.3308 282.8950 14.28965192498582
IO-26                   
1 22826U 93061D   03110.13192346  .00000088  00000-0  50524-4 0  3397
2 22826  98.2697 137.8680 0010049  78.8412 281.3900 14.29189902498571
KO-25                   
1 22828U 93061F   03110.51780462  .00000093  00000-0  52333-4 0  4761
2 22828  98.2627 138.4973 0010995  58.9842 301.2431 14.29528850466838
POSAT                   
1 22829U 93061G   03109.60592522  .00000149  00000-0  73656-4 0  5021
2 22829  98.2650 138.2695 0010835  61.7680 298.4593 14.29799871498631
RS-15                   
1 23439U 94085A   03109.87026315 -.00000015  00000-0  78335-3 0  6962
2 23439  64.8148 303.9744 0146435 103.3292 258.4006 11.27548934342397
FO-29                   
1 24278U 96046B   03109.44708904  .00000029  00000-0  63149-4 0  5755
2 24278  98.5457 252.5606 0351506  61.3064 302.2929 13.52879363329401
TO-31                   
1 25396U 98043C   03107.94523075 -.00000043  00000-0  00000-0 0  8767
2 25396  98.6165 183.8751 0001952 347.9548  12.1585 14.23529890247831
GO-32                   
1 25397U 98043D   03107.91952191  .00000018  00000-0  27374-4 0  1895
2 25397  98.6138 182.6575 0001371  22.2364 337.8868 14.22973408247790
SO-33                   
1 25509U 98061B   03109.58712600  .00000314  00000-0  52189-4 0  8274
2 25509  31.4272 174.2133 0357094 106.9874 257.0187 14.27485388233891
PO-34                   
1 25520U 98064B   03108.48932447  .00001762  00000-0  83831-4 0  6613
2 25520  28.4625 191.3151 0006052 273.0315  86.9559 15.14187753246521
ISS (ZARYA)             
1 25544U 98067A   03110.82370370  .00014258  00000-0  19048-3 0  9114
2 25544  51.6331 308.3997 0006565  39.5549 149.7901 15.58318102252056
UO-36                   
1 25693U 99021A   03110.44374667  .00000160  00000-0  42828-4 0  8929
2 25693  64.5621 184.4555 0025665 312.4256  47.4676 14.76454334215249
OO-38                   
1 26063U 00004C   03107.75519767  .00000077  00000-0  46743-4 0  7674
2 26063 100.2018 172.8564 0037321 122.4932 237.9863 14.35507241168749
SO-41                   
1 26545U 00057A   03107.82923069  .00000794  00000-0  12430-3 0  4408
2 26545  64.5588 212.8378 0047638 229.5061 130.1922 14.79134799137849
MO-46                   
1 26548U 00057D   03107.62581832  .00001019  00000-0  14650-3 0  4437
2 26548  64.5581 205.7006 0040839 230.0354 129.7157 14.81468642137970
SO-42                   
1 26549U 00057E   03107.77200223  .00000695  00000-0  11358-3 0  7418
2 26549  64.5525 217.4277 0052211 228.9889 130.6689 14.78064992137747
AO-40                   
1 26609U 00072B   03109.00807478 -.00000346  00000-0  10000-3 0  3250
2 26609   8.5228  53.4139 7957312 165.7240 252.3808  1.25596241 11335
NO-44                   
1 26931U 01043C   03107.96131039  .00000101  00000-0  72351-4 0  4902
2 26931  67.0469 105.2845 0005868 273.1026  86.9402 14.29148053 80697
NO-45                   
1 26932U 01043D   03107.93226472  .00000043  00000-0  49277-4 0  4508
2 26932  67.0537 105.0507 0003987 263.9927  96.0720 14.29317604 80712
AO-49                   
1 27605U 02058A   03107.82624696  .00000309  00000-0  70808-4 0  1103
2 27605  64.5516  20.3229 0034891  86.4887 274.0196 14.71462555 17381
SO-50                   
1 27607U 02058C   03107.87810287  .00000539  00000-0  11068-3 0  1065
2 27607  64.5520  21.0151 0036240  83.2421 277.2801 14.70035562 17379

.-.-.-.-.-.-.-.-.-.-.-.-.-.-.-.-.-.-.-.-.-.-.-.-.-.-.-.-.-.-.-.-.-.-.-.
73 de Andrej S57NML 


Read previous mail | Read next mail


 18.09.2025 00:55:05lGo back Go up